Weather in Dimitrovgrad

Russia / Ulyanovsk Oblast     54°13′03″N   49°37′19″E
temp.,
°C
wind,
m/s
gust,
m/s
humid.,
%
clouds,
%
prec.,
mm/h
press.,
hPa
HPBL,
m
28 september, tue
tue2801:00+3ene5992100 0.0 1019702
04:00+4ne5881100 0.1 1020967
07:00+4ne597625 0.0 1022884
10:00+6ne59655 0.0 1023845
13:00+8ne685055 0.0 10241354
16:00+9ne57476 0.0 10251543
19:00+7nne495729 0.0 1026552
22:00+4nne41068100 0.0 1027295
29 september, wed
wed2901:00+4nne397197 0.0 1028297
04:00+3n387766 0.0 1028200
07:00+2n38827 0.0 1029218
10:00+6nne36625 0.0 1030652
13:00+9nne35465 0.0 10291567
16:00+10nne454464 0.0 10291723
19:00+6n26655 0.0 1029138
22:00+5nnw2367100 0.0 103048
30 september, thu
thu3001:00+4n226989 0.0 103034
04:00+4n227282 0.0 103032
07:00+3n248158 0.0 103067
10:00+7n236837 0.0 1031600
13:00+10nnw335896 0.2 10301283
16:00+10nw345798 0.3 10301134
19:00+8wnw3769100 0.1 1030283
22:00+8wnw3874100 0.1 1030575
1 october, fri
fri101:00+8wnw3683100 0.0 1030421
04:00+8w3782100 0.0 1030359
07:00+8wnw3784100 0.0 1030303
10:00+10nw367791 0.0 1030401
13:00+14nw336142 0.0 10301040
16:00+14nw346074 0.0 10301120
19:00+10wnw227521 0.0 103045
22:00+9nw22825 0.0 103130
2 october, sat
sat201:00+8nnw22875 0.0 103125
04:00+7nw22905 0.0 103226
07:00+6nw22915 0.0 103225
10:00+11nnw23708 0.0 1032404
13:00+14nnw33565 0.0 10321057
16:00+14nnw335420 0.0 10321211
19:00+10n22736 0.0 103331
22:00+10nne117497 0.0 103325